Location: *
(58.4167°N, 22.5000°E)
Time: 04:37:11
(UTC+00:00)

Cosmos 1140 Rocket - Pass Details

Date: 22 September 2019
Orbit: 745 x 767 km, 74.1° (Epoch: 19 October)

Event Time Altitude Azimuth Distance (km) Brightness Sun altitude
Rises 17:34:28 0° 328° (NNW) 3,229 7.5 -9.1°
Reaches altitude 10° 17:36:52 10° 326° (NNW) 2,297 6.8 -9.4°
Maximum altitude 17:42:01 68° 245° (WSW) 815 3.8 -10.0°
Drops below altitude 10° 17:47:07 10° 164° (SSE) 2,268 5.6 -10.7°
Sets 17:49:28 0° 161° (SSE) 3,186 6.3 -11.0°
